Location: De Greiden
(52.9496°N, 5.9137°E)
Time: 01:06:56
(UTC+00:00)

SKYMED 2 - Pass Details

Date: 24 January 2021
Orbit: 621 x 623 km, 97.9° (Epoch: 26 February)

Event Time Altitude Azimuth Distance (km) Brightness Sun altitude
Exits shadow 18:18:42 - 11° (N) 2,581 6.6 -19.6°
Reaches altitude 10° 18:20:06 10° 8° (N) 2,007 6.0 -19.8°
Maximum altitude 18:24:24 60° 290° (WNW) 719 4.1 -20.4°
Drops below altitude 10° 18:28:40 10° 210° (SSW) 1,991 6.6 -21.1°
Sets 18:30:52 0° 207° (SSW) 2,892 7.4 -21.4°
